Location: Cutler
(25.6150°N, 80.3110°W)
Time: 07:33:35
(UTC-05:00)

Hubble Space Telescope - Pass Details

Date: 12 November 2017
Orbit: 537 x 541 km, 28.5° (Epoch: 21 November)

Event Time Altitude Azimuth Distance (km) Brightness Sun altitude
Rises 05:23:16 0° 207° (SSW) 2,663 4.2 -16.8°
Reaches altitude 10° 05:26:37 10° 179° (S) 1,776 3.6 -16.1°
Maximum altitude 05:28:31 13° 151° (SSE) 1,601 3.7 -15.7°
Drops below altitude 10° 05:30:24 10° 123° (ESE) 1,779 4.6 -15.2°
Sets 05:33:46 0° 95° (E) 2,673 6.2 -14.5°
